When you browse on this site, cookies collect data to enhance your experience and personalize the content and advertising you see.
Visit our Privacy Policy to learn more. By continuing to use the site, you agree to this use of cookies and data.
  • In Hungary
  • List of Countries
  • For 7 days
  • Water Temperature
  • Satellite Maps
  • Weather Map
  • News
  • Weather Widgets
  • user-avatar
    Login

    Hourly Weather Pervomajskij

    Today, 21 November, Wednesday

    Time Temperature Precipitation Wind Pressure Humidity
    00:00 -6°C° 0 mm 3 mps 752 mmHg 92%
    01:00 -6°C° 0 mm 3 mps 752 mmHg 93%
    02:00 -5°C° 0 mm 2 mps 752 mmHg 94%
    03:00 -5°C° 0 mm 2 mps 752 mmHg 94%
    04:00 -5°C° 0 mm 2 mps 752 mmHg 94%
    05:00 -5°C° 0 mm 2 mps 752 mmHg 94%
    06:00 -5°C° 0 mm 2 mps 752 mmHg 94%
    07:00 -5°C° 0 mm 2 mps 752 mmHg 93%
    08:00 -5°C° 0 mm 2 mps 752 mmHg 93%
    09:00 -4°C° 0 mm 2 mps 752 mmHg 88%
    10:00 -2°C° 0 mm 2 mps 752 mmHg 83%
    11:00 -1°C° 0 mm 2 mps 752 mmHg 77%
    12:00 -1°C° 0 mm 2 mps 751 mmHg 76%
    13:00 -1°C° 0 mm 2 mps 751 mmHg 74%
    14:00 +1°C° 0 mm 2 mps 751 mmHg 73%
    15:00 -2°C° 0 mm 2 mps 751 mmHg 76%
    16:00 -3°C° 0 mm 2 mps 751 mmHg 80%
    17:00 -4°C° 0 mm 2 mps 750 mmHg 83%
    18:00 -4°C° 0 mm 2 mps 750 mmHg 84%
    19:00 -4°C° 0 mm 2 mps 750 mmHg 84%
    20:00 -5°C° 0 mm 2 mps 750 mmHg 85%
    21:00 -5°C° 0 mm 2 mps 750 mmHg 85%
    22:00 -5°C° 0 mm 2 mps 750 mmHg 85%
    23:00 -5°C° 0 mm 2 mps 750 mmHg 85%

    Tomorrow, 22 November, Thursday

    Time Temperature Precipitation Wind Pressure Humidity
    00:00 -5°C° 0 mm 2 mps 750 mmHg 85%
    01:00 -5°C° 0 mm 2 mps 750 mmHg 85%
    02:00 -5°C° 0 mm 2 mps 750 mmHg 85%
    03:00 -6°C° 0 mm 2 mps 750 mmHg 86%
    04:00 -6°C° 0 mm 2 mps 750 mmHg 87%
    05:00 -6°C° 0 mm 2 mps 750 mmHg 88%
    06:00 -6°C° 0 mm 2 mps 750 mmHg 88%
    07:00 -6°C° 0 mm 2 mps 750 mmHg 88%
    08:00 -6°C° 0 mm 2 mps 750 mmHg 88%
    09:00 -4°C° 0 mm 2 mps 750 mmHg 83%
    10:00 -3°C° 0 mm 2 mps 750 mmHg 78%
    11:00 -2°C° 0 mm 2 mps 750 mmHg 73%
    12:00 -2°C° 0 mm 2 mps 749 mmHg 72%
    13:00 -2°C° 0 mm 3 mps 749 mmHg 71%
    14:00 -1°C° 0 mm 3 mps 749 mmHg 70%
    15:00 -2°C° 0 mm 3 mps 749 mmHg 75%
    16:00 -4°C° 0 mm 3 mps 749 mmHg 79%
    17:00 -5°C° 0 mm 3 mps 749 mmHg 83%
    18:00 -6°C° 0 mm 3 mps 748 mmHg 84%
    19:00 -6°C° 0 mm 3 mps 748 mmHg 85%
    20:00 -6°C° 0 mm 3 mps 748 mmHg 86%
    21:00 -6°C° 0 mm 3 mps 748 mmHg 87%
    22:00 -6°C° 0 mm 3 mps 748 mmHg 88%
    23:00 -7°C° 0 mm 3 mps 748 mmHg 89%

    Day after tomorrow, 23 November, Friday

    Time Temperature Precipitation Wind Pressure Humidity
    00:00 -7°C° 0 mm 3 mps 749 mmHg 90%
    01:00 -7°C° 0 mm 3 mps 749 mmHg 90%
    02:00 -8°C° 0 mm 4 mps 749 mmHg 91%
    03:00 -8°C° 0 mm 4 mps 749 mmHg 88%
    04:00 -7°C° 0 mm 4 mps 749 mmHg 86%
    05:00 -7°C° 0 mm 4 mps 749 mmHg 83%
    06:00 -7°C° 0 mm 4 mps 750 mmHg 83%
    07:00 -6°C° 0 mm 3 mps 750 mmHg 83%
    08:00 -6°C° 0 mm 3 mps 751 mmHg 84%
    09:00 -5°C° 0 mm 3 mps 751 mmHg 80%
    10:00 -4°C° 0 mm 3 mps 752 mmHg 76%
    11:00 -2°C° 0 mm 3 mps 752 mmHg 72%
    12:00 -1°C° 0 mm 3 mps 752 mmHg 71%
    13:00 -1°C° 0 mm 3 mps 753 mmHg 71%
    14:00 -1°C° 0 mm 3 mps 753 mmHg 70%
    15:00 -2°C° 0 mm 2 mps 753 mmHg 74%
    16:00 -3°C° 0 mm 2 mps 754 mmHg 78%
    17:00 -4°C° 0 mm 2 mps 754 mmHg 82%
    18:00 -4°C° 0 mm 2 mps 755 mmHg 83%
    19:00 -2°C° 0 mm 1 mps 755 mmHg 84%
    20:00 -3°C° 0 mm 1 mps 756 mmHg 85%
    21:00 -3°C° 0 mm 1 mps 756 mmHg 85%
    22:00 -3°C° 0 mm 1 mps 756 mmHg 85%
    23:00 -4°C° 0 mm 0 mps 756 mmHg 85%

    24 November, Saturday

    Time Temperature Precipitation Wind Pressure Humidity
    00:00 -3°C° 0 mm 1 mps 756 mmHg 85%
    01:00 -3°C° 0 mm 1 mps 756 mmHg 86%
    02:00 -4°C° 0 mm 1 mps 756 mmHg 86%
    03:00 -4°C° 0 mm 1 mps 756 mmHg 87%
    04:00 -4°C° 0 mm 1 mps 756 mmHg 87%
    05:00 -6°C° 0 mm 2 mps 756 mmHg 88%
    06:00 -6°C° 0 mm 2 mps 756 mmHg 88%
    07:00 -6°C° 0 mm 2 mps 756 mmHg 87%
    08:00 -6°C° 0 mm 2 mps 756 mmHg 87%
    09:00 -5°C° 0 mm 2 mps 756 mmHg 82%
    10:00 -5°C° 0 mm 3 mps 756 mmHg 78%
    11:00 -4°C° 0 mm 3 mps 756 mmHg 73%
    12:00 -2°C° 0 mm 3 mps 755 mmHg 73%
    13:00 -2°C° 0 mm 3 mps 755 mmHg 73%
    14:00 -2°C° 0 mm 3 mps 754 mmHg 73%
    15:00 -4°C° 0 mm 3 mps 754 mmHg 78%
    16:00 -5°C° 0 mm 3 mps 754 mmHg 84%
    17:00 -6°C° 0 mm 3 mps 753 mmHg 89%
    18:00 -6°C° 0 mm 3 mps 753 mmHg 90%
    19:00 -6°C° 0 mm 3 mps 753 mmHg 90%
    20:00 -6°C° 0 mm 3 mps 753 mmHg 91%
    21:00 -6°C° 0 mm 3 mps 752 mmHg 91%
    22:00 -6°C° 0 mm 3 mps 752 mmHg 90%
    23:00 -6°C° 0 mm 3 mps 752 mmHg 90%

    25 November, Sunday

    Time Temperature Precipitation Wind Pressure Humidity
    00:00 -6°C° 0 mm 3 mps 752 mmHg 90%
    01:00 -7°C° 0 mm 3 mps 751 mmHg 91%
    02:00 -7°C° 0 mm 3 mps 751 mmHg 91%
    03:00 -7°C° 0 mm 3 mps 751 mmHg 91%
    04:00 -6°C° 0 mm 2 mps 750 mmHg 91%
    05:00 -6°C° 0 mm 2 mps 750 mmHg 91%
    06:00 -6°C° 0 mm 2 mps 750 mmHg 91%
    07:00 -6°C° 0 mm 2 mps 749 mmHg 91%
    08:00 -7°C° 0 mm 3 mps 749 mmHg 90%
    09:00 -5°C° 0 mm 3 mps 749 mmHg 86%
    10:00 -4°C° 0 mm 3 mps 749 mmHg 82%
    11:00 -2°C° 0 mm 3 mps 749 mmHg 77%
    12:00 -1°C° 0 mm 3 mps 748 mmHg 78%
    13:00 -1°C° 0 mm 3 mps 748 mmHg 79%
    14:00 -1°C° 0 mm 3 mps 747 mmHg 80%
    15:00 -2°C° 0 mm 2 mps 747 mmHg 84%
    16:00 -2°C° 0 mm 2 mps 747 mmHg 89%
    17:00 -3°C° 0 mm 2 mps 747 mmHg 93%
    18:00 -3°C° 0 mm 2 mps 747 mmHg 93%
    19:00 -3°C° 0 mm 2 mps 746 mmHg 93%
    20:00 -4°C° 0 mm 3 mps 746 mmHg 94%
    21:00 -2°C° 0 mm 3 mps 746 mmHg 93%
    22:00 -2°C° 0 mm 3 mps 746 mmHg 92%
    23:00 -2°C° 0 mm 3 mps 745 mmHg 92%

    26 November, Monday

    Time Temperature Precipitation Wind Pressure Humidity
    00:00 -2°C° 0 mm 3 mps 745 mmHg 92%
    01:00 -2°C° 0 mm 4 mps 745 mmHg 91%
    02:00 -2°C° 0 mm 4 mps 744 mmHg 91%
    03:00 -2°C° 0.1 mm 4 mps 744 mmHg 92%
    04:00 -2°C° 0.1 mm 4 mps 744 mmHg 92%
    05:00 -1°C° 0.1 mm 5 mps 744 mmHg 93%
    06:00 -1°C° 0.1 mm 5 mps 744 mmHg 93%
    07:00 -1°C° 0.1 mm 5 mps 744 mmHg 94%
    08:00 -1°C° 0.1 mm 5 mps 744 mmHg 94%
    09:00 0°C° 0 mm 5 mps 743 mmHg 93%
    10:00 0°C° 0 mm 5 mps 743 mmHg 91%
    11:00 +1°C° 0 mm 5 mps 743 mmHg 89%
    12:00 +1°C° 0.1 mm 5 mps 743 mmHg 90%
    13:00 +1°C° 0.1 mm 4 mps 743 mmHg 91%
    14:00 +1°C° 0.1 mm 4 mps 743 mmHg 91%
    15:00 0°C° 0.2 mm 4 mps 743 mmHg 93%
    16:00 +1°C° 0.2 mm 3 mps 743 mmHg 94%
    17:00 +1°C° 0.2 mm 3 mps 743 mmHg 95%
    18:00 +1°C° 0.4 mm 3 mps 743 mmHg 95%
    19:00 +1°C° 0.4 mm 3 mps 742 mmHg 95%
    20:00 +1°C° 0.4 mm 3 mps 742 mmHg 95%
    21:00 +2°C° 0.4 mm 2 mps 742 mmHg 96%
    22:00 +2°C° 0.4 mm 2 mps 742 mmHg 96%
    23:00 +2°C° 0.4 mm 2 mps 742 mmHg 96%
    Show more